,,Stat6,,Stat2,,Stat8,,Stat9,,Stat10,,Wind1,,Wind1,
time,status,PA1M_AVG,status,PR1M_SUM,status,RH1M_AVG,status,SR1M_AVG,status,TA1M_AVG,status,W1dAve1m,status,W1sAve1m,
2007-05-03, 00:00:00,VALID,917.43,VALID,0,VALID,100,VALID,-0.0339617,VALID,19.6766,VALID,322,VALID,0.0851753,
2007-05-03, 00:01:00,VALID,917.389,VALID,0,VALID,100,VALID,-0.0679233,VALID,19.6863,VALID,322,VALID,0.336128,
2007-05-03, 00:02:00,VALID,917.362,VALID,0,VALID,100,VALID,-0.0509425,VALID,19.6896,VALID,322,VALID,0.394627,
2007-05-03, 00:03:00,VALID,917.347,VALID,0,VALID,100,VALID,-0.0679233,VALID,19.6766,VALID,322,VALID,0.434524,
2007-05-03, 00:04:00,VALID,917.333,VALID,0,VALID,100,VALID,-0.0169808,VALID,19.6664,VALID,322,VALID,0.297256,
2007-05-03, 00:05:00,VALID,917.314,VALID,0,VALID,100,VALID,-0.0169808,VALID,19.6669,VALID,303,VALID,0.472656,
2007-05-03, 00:06:00,VALID,917.293,VALID,0,VALID,100,VALID,-0.0339617,VALID,19.6569,VALID,287,VALID,0.0777616,
2007-05-03, 00:07:00,VALID,917.27,VALID,0,VALID,100,VALID,-0.0339617,VALID,19.6536,VALID,287,VALID,0.0269717,
2007-05-03, 00:08:00,VALID,917.268,VALID,0,VALID,100,VALID,-0.0509425,VALID,19.6601,VALID,287,VALID,0.0531994,
2007-05-03, 00:09:00,VALID,917.236,VALID,0,VALID,100,VALID,0.0339617,VALID,19.6586,VALID,287,VALID,0.111328,
2007-05-03, 00:10:00,VALID,917.218,VALID,0,VALID,100,VALID,0.0339617,VALID,19.6427,VALID,286,VALID,0.332227,
2007-05-03, 00:11:00,VALID,917.191,VALID,0,VALID,100,VALID,0.0339617,VALID,19.6297,VALID,285,VALID,0.0657704,
2007-05-03, 00:12:00,VALID,917.162,VALID,0,VALID,100,VALID,0.0339617,VALID,19.6297,VALID,285,VALID,0.124467,
2007-05-03, 00:13:00,VALID,917.136,VALID,0,VALID,100,VALID,0.0339617,VALID,19.6199,VALID,287,VALID,0.496701,
2007-05-03, 00:14:00,VALID,917.116,VALID,0,VALID,100,VALID,-0.0679233,VALID,19.6179,VALID,286,VALID,0.377486,
2007-05-03, 00:15:00,VALID,917.099,VALID,0,VALID,100,VALID,-0.0679233,VALID,19.6282,VALID,285,VALID,0.326079,
2007-05-03, 00:16:00,VALID,917.067,VALID,0,VALID,100,VALID,-0.0679233,VALID,19.6377,VALID,285,VALID,0.141959,
2007-05-03, 00:17:00,VALID,917.037,VALID,0,VALID,100,VALID,-0.0509425,VALID,19.6444,VALID,285,VALID,0.10766,
2007-05-03, 00:18:00,VALID,917.022,VALID,0,VALID,100,VALID,0,VALID,19.6474,VALID,285,VALID,0.094308,
2007-05-03, 00:19:00,VALID,916.997,VALID,0,VALID,100,VALID,-0.0339617,VALID,19.6309,VALID,327,VALID,0.411632,
2007-05-03, 00:20:00,VALID,916.962,VALID,0,VALID,100,VALID,-0.0339617,VALID,19.6407,VALID,25,VALID,0.846227,
2007-05-03, 00:21:00,VALID,916.954,VALID,0,VALID,100,VALID,-0.0339617,VALID,19.6307,VALID,29,VALID,0.89335,
2007-05-03, 00:22:00,VALID,916.959,VALID,0,VALID,100,VALID,-0.0169808,VALID,19.6279,VALID,4,VALID,0.557173,
2007-05-03, 00:23:00,VALID,916.937,VALID,0,VALID,100,VALID,-0.0509425,VALID,19.602,VALID,337,VALID,0.396434,
2007-05-03, 00:24:00,VALID,916.909,VALID,0,VALID,100,VALID,-0.0339617,VALID,19.5758,VALID,337,VALID,0.0586806,
2007-05-03, 00:25:00,VALID,916.898,VALID,0,VALID,100,VALID,-0.0509425,VALID,19.5825,VALID,337,VALID,0.0479651,
2007-05-03, 00:26:00,VALID,916.869,VALID,0,VALID,100,VALID,-0.0679233,VALID,19.5827,VALID,332,VALID,0.403773,
2007-05-03, 00:27:00,VALID,916.846,VALID,0,VALID,100,VALID,-0.0169808,VALID,19.5925,VALID,332,VALID,0.286156,
2007-05-03, 00:28:00,VALID,916.827,VALID,0,VALID,100,VALID,-0.0339617,VALID,19.589,VALID,332,VALID,0.19436,
2007-05-03, 00:29:00,VALID,916.812,VALID,0,VALID,100,VALID,-0.101885,VALID,19.5827,VALID,332,VALID,0.222202,
2007-05-03, 00:30:00,VALID,916.771,VALID,0,VALID,100,VALID,-0.0849042,VALID,19.5595,VALID,332,VALID,0.288336,
2007-05-03, 00:31:00,VALID,916.736,VALID,0,VALID,100,VALID,-0.0679233,VALID,19.5663,VALID,333,VALID,0.274528,
2007-05-03, 00:32:00,VALID,916.727,VALID,0,VALID,100,VALID,-0.0679233,VALID,19.586,VALID,344,VALID,0.379616,
2007-05-03, 00:33:00,VALID,916.727,VALID,0,VALID,100,VALID,-0.0339617,VALID,19.5758,VALID,348,VALID,0.161577,
2007-05-03, 00:34:00,VALID,916.695,VALID,0,VALID,100,VALID,-0.0679233,VALID,19.5436,VALID,347,VALID,0.338715,
2007-05-03, 00:35:00,VALID,916.681,VALID,0,VALID,100,VALID,-0.101885,VALID,19.5433,VALID,319,VALID,0.477471,
2007-05-03, 00:36:00,VALID,916.656,VALID,0,VALID,100,VALID,-0.0849042,VALID,19.5598,VALID,319,VALID,0.318537,
2007-05-03, 00:37:00,VALID,916.612,VALID,0,VALID,100,VALID,-0.101885,VALID,19.5565,VALID,346,VALID,0.469658,
2007-05-03, 00:38:00,VALID,916.605,VALID,0,VALID,100,VALID,-0.101885,VALID,19.5595,VALID,10,VALID,0.792259,
2007-05-03, 00:39:00,VALID,916.6,VALID,0,VALID,100,VALID,-0.101885,VALID,19.5401,VALID,325,VALID,0.346912,
2007-05-03, 00:40:00,VALID,916.579,VALID,0,VALID,100,VALID,-0.0849042,VALID,19.5568,VALID,304,VALID,0.0797602,
2007-05-03, 00:41:00,VALID,916.589,VALID,0,VALID,100,VALID,-0.0509425,VALID,19.563,VALID,288,VALID,0.465774,
2007-05-03, 00:42:00,VALID,916.587,VALID,0,VALID,100,VALID,-0.0849042,VALID,19.5825,VALID,268,VALID,0.299183,
2007-05-03, 00:43:00,VALID,916.566,VALID,0,VALID,100,VALID,-0.118866,VALID,19.5793,VALID,289,VALID,0.401414,
2007-05-03, 00:44:00,VALID,916.56,VALID,0,VALID,100,VALID,-0.101885,VALID,19.583,VALID,310,VALID,0.419613,
2007-05-03, 00:45:00,VALID,916.564,VALID,0,VALID,100,VALID,-0.101885,VALID,19.5665,VALID,24,VALID,0.68457,
2007-05-03, 00:46:00,VALID,916.565,VALID,0,VALID,100,VALID,-0.118866,VALID,19.5446,VALID,339,VALID,0.662388,
2007-05-03, 00:47:00,VALID,916.564,VALID,0,VALID,100,VALID,-0.101885,VALID,19.5503,VALID,304,VALID,0.442264,
2007-05-03, 00:48:00,VALID,916.562,VALID,0,VALID,100,VALID,-0.101885,VALID,19.5598,VALID,290,VALID,0.338423,
2007-05-03, 00:49:00,VALID,916.549,VALID,0,VALID,100,VALID,-0.0849042,VALID,19.5471,VALID,294,VALID,0.182958,
2007-05-03, 00:50:00,VALID,916.53,VALID,0,VALID,100,VALID,-0.101885,VALID,19.56,VALID,295,VALID,0.0223214,
2007-05-03, 00:51:00,VALID,916.523,VALID,0,VALID,100,VALID,-0.118866,VALID,19.5635,VALID,295,VALID,0.137957,
2007-05-03, 00:52:00,VALID,916.498,VALID,0,VALID,100,VALID,-0.101885,VALID,19.5598,VALID,295,VALID,0.258743,
2007-05-03, 00:53:00,VALID,916.486,VALID,0,VALID,100,VALID,-0.101885,VALID,19.5498,VALID,295,VALID,0.263393,
2007-05-03, 00:54:00,VALID,916.485,VALID,0,VALID,100,VALID,-0.118866,VALID,19.5408,VALID,295,VALID,0.525981,
2007-05-03, 00:55:00,VALID,916.478,VALID,0,VALID,100,VALID,-0.118866,VALID,19.5341,VALID,295,VALID,0.365473,
2007-05-03, 00:56:00,VALID,916.453,VALID,0,VALID,100,VALID,-0.118866,VALID,19.5246,VALID,289,VALID,0.484885,
2007-05-03, 00:57:00,VALID,916.445,VALID,0,VALID,100,VALID,-0.118866,VALID,19.5154,VALID,273,VALID,0.574119,
2007-05-03, 00:58:00,VALID,916.426,VALID,0,VALID,100,VALID,-0.118866,VALID,19.5348,VALID,264,VALID,0.498666,
2007-05-03, 00:59:00,VALID,916.405,VALID,0,VALID,100,VALID,-0.0339617,VALID,19.5358,VALID,259,VALID,0.0751488,
2007-05-03, 01:00:00,VALID,916.389,VALID,0,VALID,100,VALID,-0.0169808,VALID,19.5423,VALID,259,VALID,0.0589489,
2007-05-03, 01:01:00,VALID,916.363,VALID,0,VALID,100,VALID,0,VALID,19.5488,VALID,259,VALID,0.120312,
2007-05-03, 01:02:00,VALID,916.357,VALID,0,VALID,100,VALID,0,VALID,19.5678,VALID,337,VALID,0.560724,
2007-05-03, 01:03:00,VALID,916.34,VALID,0,VALID,100,VALID,0,VALID,19.5912,VALID,5,VALID,0.621185,
2007-05-03, 01:04:00,VALID,916.344,VALID,0,VALID,100,VALID,0.0339617,VALID,19.5875,VALID,5,VALID,0.143914,
2007-05-03, 01:05:00,VALID,916.329,VALID,0,VALID,100,VALID,0,VALID,19.6077,VALID,5,VALID,0.000726744,
2007-05-03, 01:06:00,VALID,916.32,VALID,0,VALID,100,VALID,-0.0169808,VALID,19.5915,VALID,5,VALID,0.125521,
2007-05-03, 01:07:00,VALID,916.294,VALID,0,VALID,100,VALID,0.0169808,VALID,19.568,VALID,5,VALID,0,
2007-05-03, 01:08:00,VALID,916.284,VALID,0,VALID,100,VALID,0.0169808,VALID,19.5753,VALID,5,VALID,0.118886,
2007-05-03, 01:09:00,VALID,916.269,VALID,0,VALID,100,VALID,0,VALID,19.5718,VALID,5,VALID,0.00546875,
2007-05-03, 01:10:00,VALID,916.259,VALID,0,VALID,100,VALID,0.0169808,VALID,19.5778,VALID,5,VALID,0.0145349,
2007-05-03, 01:11:00,VALID,916.244,VALID,0,VALID,100,VALID,-0.0169808,VALID,19.568,VALID,5,VALID,0.104581,
2007-05-03, 01:12:00,VALID,916.234,VALID,0,VALID,100,VALID,0.0169808,VALID,19.5848,VALID,5,VALID,0,
2007-05-03, 01:13:00,VALID,916.236,VALID,0,VALID,100,VALID,-0.0169808,VALID,19.5715,VALID,5,VALID,0.0464744,
2007-05-03, 01:14:00,VALID,916.221,VALID,0,VALID,100,VALID,-0.0849042,VALID,19.5565,VALID,5,VALID,0.251116,
2007-05-03, 01:15:00,VALID,916.199,VALID,0,VALID,100,VALID,-0.0849042,VALID,19.5371,VALID,5,VALID,0.127725,
2007-05-03, 01:16:00,VALID,916.173,VALID,0,VALID,100,VALID,-0.0679233,VALID,19.5406,VALID,303,VALID,0.213605,
2007-05-03, 01:17:00,VALID,916.16,VALID,0,VALID,100,VALID,-0.0849042,VALID,19.5368,VALID,300,VALID,0.00436047,
2007-05-03, 01:18:00,VALID,916.128,VALID,0,VALID,100,VALID,-0.0849042,VALID,19.5436,VALID,314,VALID,0.183685,
2007-05-03, 01:19:00,VALID,916.125,VALID,0,VALID,100,VALID,-0.101885,VALID,19.5403,VALID,22,VALID,0.671165,
2007-05-03, 01:20:00,VALID,916.115,VALID,0,VALID,100,VALID,-0.0679233,VALID,19.5336,VALID,26,VALID,0.315451,
2007-05-03, 01:21:00,VALID,916.115,VALID,0,VALID,100,VALID,-0.101885,VALID,19.5403,VALID,26,VALID,0,
2007-05-03, 01:22:00,VALID,916.069,VALID,0,VALID,100,VALID,-0.0849042,VALID,19.5438,VALID,26,VALID,0.0763494,
2007-05-03, 01:23:00,VALID,916.026,VALID,0,VALID,100,VALID,-0.118866,VALID,19.5273,VALID,33,VALID,0.601207,
2007-05-03, 01:24:00,VALID,915.995,VALID,0,VALID,100,VALID,-0.0849042,VALID,19.5046,VALID,35,VALID,0.704102,
2007-05-03, 01:25:00,VALID,915.977,VALID,0,VALID,100,VALID,-0.0679233,VALID,19.4949,VALID,36,VALID,0.819922,
2007-05-03, 01:26:00,VALID,915.969,VALID,0,VALID,100,VALID,-0.101885,VALID,19.4852,VALID,39,VALID,0.627778,
2007-05-03, 01:27:00,VALID,915.972,VALID,0,VALID,100,VALID,-0.101885,VALID,19.5014,VALID,38,VALID,0.103277,
2007-05-03, 01:28:00,VALID,915.938,VALID,0,VALID,100,VALID,-0.0339617,VALID,19.5114,VALID,351,VALID,0.212209,
2007-05-03, 01:29:00,VALID,915.906,VALID,0,VALID,100,VALID,-0.0169808,VALID,19.5074,VALID,350,VALID,0.225654,
2007-05-03, 01:30:00,VALID,915.869,VALID,0,VALID,100,VALID,-0.0169808,VALID,19.5259,VALID,360,VALID,0.402158,
2007-05-03, 01:31:00,VALID,915.857,VALID,0,VALID,100,VALID,0,VALID,19.5363,VALID,3,VALID,0.385417,
2007-05-03, 01:32:00,VALID,915.862,VALID,0,VALID,100,VALID,-0.0169808,VALID,19.5368,VALID,3,VALID,0.316236,
2007-05-03, 01:33:00,VALID,915.817,VALID,0,VALID,100,VALID,-0.0339617,VALID,19.5269,VALID,3,VALID,0.266959,
2007-05-03, 01:34:00,VALID,915.78,VALID,0,VALID,100,VALID,0,VALID,19.5328,VALID,8,VALID,0.6252,
2007-05-03, 01:35:00,VALID,915.777,VALID,0,VALID,100,VALID,-0.0169808,VALID,19.5226,VALID,10,VALID,0.710392,
2007-05-03, 01:36:00,VALID,915.746,VALID,0,VALID,100,VALID,-0.0339617,VALID,19.5231,VALID,31,VALID,1.03616,
2007-05-03, 01:37:00,VALID,915.738,VALID,0,VALID,100,VALID,-0.0339617,VALID,19.5007,VALID,31,VALID,1.17676,
2007-05-03, 01:38:00,VALID,915.73,VALID,0,VALID,100,VALID,-0.0509425,VALID,19.4774,VALID,38,VALID,1.14844,
2007-05-03, 01:39:00,VALID,915.71,VALID,0,VALID,100,VALID,-0.0509425,VALID,19.4685,VALID,44,VALID,0.692042,
2007-05-03, 01:40:00,VALID,915.715,VALID,0,VALID,100,VALID,0,VALID,19.4485,VALID,44,VALID,0.188408,
2007-05-03, 01:41:00,VALID,915.699,VALID,0,VALID,100,VALID,-0.0339617,VALID,19.426,VALID,44,VALID,0.221112,
2007-05-03, 01:42:00,VALID,915.67,VALID,0,VALID,100,VALID,-0.0509425,VALID,19.4195,VALID,36,VALID,0.598899,
2007-05-03, 01:43:00,VALID,915.638,VALID,0,VALID,100,VALID,-0.0169808,VALID,19.3968,VALID,29,VALID,0.588118,
2007-05-03, 01:44:00,VALID,915.607,VALID,0,VALID,100,VALID,-0.0339617,VALID,19.4006,VALID,40,VALID,0.965216,
2007-05-03, 01:45:00,VALID,915.578,VALID,0,VALID,100,VALID,-0.0339617,VALID,19.3874,VALID,40,VALID,0.65968,
2007-05-03, 01:46:00,VALID,915.535,VALID,0,VALID,100,VALID,0,VALID,19.3809,VALID,39,VALID,0.229106,
2007-05-03, 01:47:00,VALID,915.514,VALID,0,VALID,100,VALID,-0.0339617,VALID,19.3542,VALID,39,VALID,0.177144,
2007-05-03, 01:48:00,VALID,915.509,VALID,0,VALID,100,VALID,0,VALID,19.3544,VALID,3,VALID,0.0846946,
2007-05-03, 01:49:00,VALID,915.477,VALID,0,VALID,100,VALID,-0.0169808,VALID,19.3774,VALID,351,VALID,0.506793,
2007-05-03, 01:50:00,VALID,915.435,VALID,0,VALID,100,VALID,0,VALID,19.3993,VALID,10,VALID,0.458507,
2007-05-03, 01:51:00,VALID,915.407,VALID,0,VALID,100,VALID,-0.0169808,VALID,19.4163,VALID,16,VALID,0.448847,
2007-05-03, 01:52:00,VALID,915.398,VALID,0,VALID,100,VALID,-0.0339617,VALID,19.4135,VALID,27,VALID,0.562691,
2007-05-03, 01:53:00,VALID,915.366,VALID,0,VALID,100,VALID,0,VALID,19.4131,VALID,20,VALID,0.565848,
2007-05-03, 01:54:00,VALID,915.337,VALID,0,VALID,100,VALID,0.0169808,VALID,19.4096,VALID,7,VALID,0.0939453,
2007-05-03, 01:55:00,VALID,915.324,VALID,0,VALID,100,VALID,-0.0339617,VALID,19.4161,VALID,359,VALID,0.440168,
2007-05-03, 01:56:00,VALID,915.29,VALID,0,VALID,100,VALID,-0.0339617,VALID,19.4225,VALID,357,VALID,0.498047,
2007-05-03, 01:57:00,VALID,915.267,VALID,0,VALID,100,VALID,-0.0169808,VALID,19.4587,VALID,15,VALID,1.01399,
2007-05-03, 01:58:00,VALID,915.274,VALID,0,VALID,100,VALID,0,VALID,19.4752,VALID,15,VALID,0.959339,
2007-05-03, 01:59:00,VALID,915.264,VALID,0,VALID,100,VALID,-0.0169808,VALID,19.4872,VALID,15,VALID,1.16711,
2007-05-03, 02:00:00,VALID,915.236,VALID,0,VALID,100,VALID,0,VALID,19.5196,VALID,29,VALID,1.0638,
2007-05-03, 02:01:00,VALID,915.23,VALID,0,VALID,100,VALID,0,VALID,19.5361,VALID,27,VALID,1.19103,
2007-05-03, 02:02:00,VALID,915.243,VALID,0,VALID,100,VALID,-0.0169808,VALID,19.5491,VALID,345,VALID,0.997275,
2007-05-03, 02:03:00,VALID,915.254,VALID,0,VALID,100,VALID,0,VALID,19.6105,VALID,315,VALID,0.432813,
2007-05-03, 02:04:00,VALID,915.239,VALID,0,VALID,100,VALID,-0.0169808,VALID,19.6526,VALID,226,VALID,0.3125,
2007-05-03, 02:05:00,VALID,915.205,VALID,0,VALID,100,VALID,0,VALID,19.6656,VALID,190,VALID,0.229833,
2007-05-03, 02:06:00,VALID,915.189,VALID,0,VALID,100,VALID,0.0169808,VALID,19.6689,VALID,129,VALID,0.0135789,
2007-05-03, 02:07:00,VALID,915.194,VALID,0,VALID,100,VALID,0,VALID,19.6918,VALID,103,VALID,0.54082,
2007-05-03, 02:08:00,VALID,915.16,VALID,0,VALID,99.883,VALID,-0.0339617,VALID,19.741,VALID,327,VALID,0.571555,
2007-05-03, 02:09:00,VALID,915.149,VALID,0,VALID,99.7027,VALID,-0.0169808,VALID,19.8154,VALID,29,VALID,1.10099,
2007-05-03, 02:10:00,VALID,915.129,VALID,0,VALID,99.4268,VALID,-0.0339617,VALID,19.8545,VALID,31,VALID,0.962462,
2007-05-03, 02:11:00,VALID,915.119,VALID,0,VALID,98.9334,VALID,0,VALID,19.8775,VALID,31,VALID,1.24891,
2007-05-03, 02:12:00,VALID,915.131,VALID,0,VALID,98.6892,VALID,-0.0509425,VALID,19.9289,VALID,22,VALID,0.603299,
2007-05-03, 02:13:00,VALID,915.125,VALID,0,VALID,98.4947,VALID,-0.101885,VALID,19.9357,VALID,15,VALID,0.263672,
2007-05-03, 02:14:00,VALID,915.103,VALID,0,VALID,98.3612,VALID,-0.0169808,VALID,19.9289,VALID,15,VALID,1.02344,
2007-05-03, 02:15:00,VALID,915.096,VALID,0,VALID,98.2671,VALID,-0.0169808,VALID,19.9124,VALID,16,VALID,0.706931,
2007-05-03, 02:16:00,VALID,915.097,VALID,0,VALID,98.365,VALID,-0.0169808,VALID,19.9159,VALID,16,VALID,0.369665,
2007-05-03, 02:17:00,VALID,915.054,VALID,0,VALID,98.4718,VALID,0,VALID,19.8827,VALID,21,VALID,1.49237,
2007-05-03, 02:18:00,VALID,915.049,VALID,0,VALID,98.4018,VALID,-0.0339617,VALID,19.8673,VALID,264,VALID,0.506214,
2007-05-03, 02:19:00,VALID,915.056,VALID,0,VALID,98.3319,VALID,-0.0509425,VALID,19.8735,VALID,229,VALID,0.740141,
2007-05-03, 02:20:00,VALID,915.034,VALID,0,VALID,97.7902,VALID,0,VALID,19.88,VALID,262,VALID,0.440696,
2007-05-03, 02:21:00,VALID,915.025,VALID,0,VALID,97.6274,VALID,-0.0169808,VALID,19.9511,VALID,302,VALID,0.487165,
2007-05-03, 02:22:00,VALID,915.005,VALID,0,VALID,97.4291,VALID,-0.0169808,VALID,20.0392,VALID,354,VALID,0.536044,
2007-05-03, 02:23:00,VALID,914.993,VALID,0,VALID,97.4176,VALID,-0.0169808,VALID,20.0817,VALID,8,VALID,0.535251,
2007-05-03, 02:24:00,VALID,914.993,VALID,0,VALID,97.4214,VALID,-0.0509425,VALID,20.0749,VALID,319,VALID,0.162729,
2007-05-03, 02:25:00,VALID,914.955,VALID,0,VALID,97.4532,VALID,-0.0169808,VALID,20.062,VALID,359,VALID,0.693359,
2007-05-03, 02:26:00,VALID,914.956,VALID,0,VALID,97.1353,VALID,-0.0169808,VALID,20.042,VALID,359,VALID,1.00363,
2007-05-03, 02:27:00,VALID,914.938,VALID,0,VALID,96.9904,VALID,0,VALID,20.0515,VALID,17,VALID,0.551639,
2007-05-03, 02:28:00,VALID,914.942,VALID,0,VALID,97.1023,VALID,0,VALID,20.0582,VALID,336,VALID,0.313117,
2007-05-03, 02:29:00,VALID,914.926,VALID,0,VALID,97.1862,VALID,-0.0679233,VALID,20.0298,VALID,5,VALID,0.409489,
2007-05-03, 02:30:00,VALID,914.959,VALID,0,VALID,97.4927,VALID,-0.0339617,VALID,19.9943,VALID,259,VALID,0.577035,
2007-05-03, 02:31:00,VALID,914.938,VALID,0,VALID,97.5575,VALID,-0.0339617,VALID,19.9456,VALID,227,VALID,0.818004,
2007-05-03, 02:32:00,VALID,914.916,VALID,0,VALID,97.5244,VALID,-0.0679233,VALID,19.9327,VALID,331,VALID,1.87589,
2007-05-03, 02:33:00,VALID,914.941,VALID,0,VALID,96.291,VALID,-0.0679233,VALID,20.0722,VALID,10,VALID,1.85302,
2007-05-03, 02:34:00,VALID,914.976,VALID,0,VALID,95.3589,VALID,-0.0679233,VALID,20.2704,VALID,20,VALID,0.846354,
2007-05-03, 02:35:00,VALID,914.981,VALID,0,VALID,95.1554,VALID,-0.0509425,VALID,20.3391,VALID,340,VALID,0.727134,
2007-05-03, 02:36:00,VALID,914.968,VALID,0,VALID,94.1788,VALID,-0.0339617,VALID,20.3513,VALID,10,VALID,1.46312,
2007-05-03, 02:37:00,VALID,914.943,VALID,0,VALID,93.8164,VALID,-0.0169808,VALID,20.4941,VALID,17,VALID,1.3343,
2007-05-03, 02:38:00,VALID,914.959,VALID,0,VALID,94.3925,VALID,-0.0679233,VALID,20.527,VALID,222,VALID,1.38192,
2007-05-03, 02:39:00,VALID,914.998,VALID,0,VALID,93.8711,VALID,-0.0679233,VALID,20.4324,VALID,168,VALID,0.815104,
2007-05-03, 02:40:00,VALID,915.01,VALID,0,VALID,94.0224,VALID,-0.0339617,VALID,20.4389,VALID,184,VALID,0.668324,
2007-05-03, 02:41:00,VALID,915.014,VALID,0,VALID,93.744,VALID,0,VALID,20.4292,VALID,229,VALID,0.331771,
2007-05-03, 02:42:00,VALID,915.019,VALID,0,VALID,94.1521,VALID,-0.101885,VALID,20.4424,VALID,250,VALID,0.394345,
2007-05-03, 02:43:00,VALID,915.049,VALID,0,VALID,94.6926,VALID,-0.0849042,VALID,20.4197,VALID,275,VALID,0.231957,
2007-05-03, 02:44:00,VALID,915.042,VALID,0,VALID,95.1809,VALID,0,VALID,20.367,VALID,275,VALID,0,
2007-05-03, 02:45:00,VALID,915.06,VALID,0,VALID,95.4924,VALID,0.0339617,VALID,20.3143,VALID,257,VALID,0.186198,
2007-05-03, 02:46:00,VALID,915.086,VALID,0,VALID,96.0214,VALID,0.0509425,VALID,20.2656,VALID,211,VALID,0.252131,
2007-05-03, 02:47:00,VALID,915.094,VALID,0,VALID,96.4766,VALID,0.0339617,VALID,20.2234,VALID,292,VALID,0.661395,
2007-05-03, 02:48:00,VALID,915.108,VALID,0,VALID,96.6648,VALID,0.0339617,VALID,20.1488,VALID,316,VALID,0.388021,
2007-05-03, 02:49:00,VALID,915.113,VALID,0,VALID,96.9026,VALID,0.0679233,VALID,20.0976,VALID,303,VALID,0.134673,
2007-05-03, 02:50:00,VALID,915.091,VALID,0,VALID,97.4125,VALID,0.0509425,VALID,20.0609,VALID,20,VALID,0.61843,
2007-05-03, 02:51:00,VALID,915.097,VALID,0,VALID,97.8958,VALID,0.0169808,VALID,20.0417,VALID,11,VALID,0.916606,
2007-05-03, 02:52:00,VALID,915.056,VALID,0,VALID,98.1831,VALID,0.0339617,VALID,19.9836,VALID,36,VALID,1.71148,
2007-05-03, 02:53:00,VALID,915.12,VALID,0,VALID,98.4832,VALID,0.0679233,VALID,19.9184,VALID,4,VALID,0.870276,
2007-05-03, 02:54:00,VALID,915.16,VALID,0,VALID,98.796,VALID,0.0339617,VALID,19.8797,VALID,202,VALID,1.13536,
2007-05-03, 02:55:00,VALID,915.149,VALID,0,VALID,98.9563,VALID,0.0339617,VALID,19.8308,VALID,218,VALID,0.324041,
2007-05-03, 02:56:00,VALID,915.108,VALID,0,VALID,99.1902,VALID,0.0679233,VALID,19.8049,VALID,220,VALID,0.0347656,
2007-05-03, 02:57:00,VALID,915.105,VALID,0,VALID,99.3301,VALID,0,VALID,19.7759,VALID,220,VALID,0.0804869,
2007-05-03, 02:58:00,VALID,915.12,VALID,0,VALID,99.4687,VALID,0,VALID,19.7627,VALID,247,VALID,0.291406,
2007-05-03, 02:59:00,VALID,915.123,VALID,0,VALID,99.6111,VALID,0,VALID,19.7612,VALID,260,VALID,0.00508721,
2007-05-03, 03:00:00,VALID,915.153,VALID,0,VALID,99.7739,VALID,-0.0339617,VALID,19.761,VALID,252,VALID,0.351935,
2007-05-03, 03:01:00,VALID,915.129,VALID,0,VALID,99.5196,VALID,-0.0339617,VALID,19.7347,VALID,251,VALID,1.19295,
2007-05-03, 03:02:00,VALID,915.097,VALID,0,VALID,99.4725,VALID,-0.0509425,VALID,19.7707,VALID,355,VALID,0.619606,
2007-05-03, 03:03:00,VALID,915.066,VALID,0,VALID,99.5183,VALID,-0.0339617,VALID,19.8096,VALID,28,VALID,0.521391,
2007-05-03, 03:04:00,VALID,915.083,VALID,0,VALID,99.4865,VALID,-0.0339617,VALID,19.7996,VALID,77,VALID,0.302689,
2007-05-03, 03:05:00,VALID,915.105,VALID,0,VALID,99.517,VALID,-0.0509425,VALID,19.7999,VALID,76,VALID,0.115327,
2007-05-03, 03:06:00,VALID,915.071,VALID,0,VALID,99.6099,VALID,-0.0849042,VALID,19.7966,VALID,98,VALID,1.22017,
2007-05-03, 03:07:00,VALID,915.125,VALID,0,VALID,99.4802,VALID,-0.0509425,VALID,19.7869,VALID,199,VALID,1.48289,
2007-05-03, 03:08:00,VALID,915.142,VALID,0,VALID,99.4001,VALID,-0.0849042,VALID,19.7867,VALID,222,VALID,1.05639,
2007-05-03, 03:09:00,VALID,915.145,VALID,0,VALID,99.2055,VALID,-0.0169808,VALID,19.7999,VALID,242,VALID,1.28216,
2007-05-03, 03:10:00,VALID,915.121,VALID,0,VALID,98.983,VALID,-0.0679233,VALID,19.8129,VALID,253,VALID,1.12264,
2007-05-03, 03:11:00,VALID,915.123,VALID,0,VALID,99.03,VALID,-0.0169808,VALID,19.8326,VALID,256,VALID,0.460007,
2007-05-03, 03:12:00,VALID,915.089,VALID,0,VALID,99.1279,VALID,-0.0169808,VALID,19.8386,VALID,269,VALID,0.144097,
2007-05-03, 03:13:00,VALID,915.088,VALID,0,VALID,99.311,VALID,-0.0509425,VALID,19.855,VALID,347,VALID,0.303977,
2007-05-03, 03:14:00,VALID,915.103,VALID,0,VALID,99.3975,VALID,-0.0679233,VALID,19.8483,VALID,347,VALID,0.255469,
2007-05-03, 03:15:00,VALID,915.084,VALID,0,VALID,99.4293,VALID,-0.0169808,VALID,19.8353,VALID,8,VALID,0.44401,
2007-05-03, 03:16:00,VALID,915.117,VALID,0,VALID,99.5641,VALID,-0.0849042,VALID,19.8323,VALID,19,VALID,0.546303,
2007-05-03, 03:17:00,VALID,915.156,VALID,0,VALID,99.5234,VALID,-0.0339617,VALID,19.8291,VALID,8,VALID,0.187128,
2007-05-03, 03:18:00,VALID,915.191,VALID,0,VALID,99.2093,VALID,-0.0509425,VALID,19.8034,VALID,249,VALID,0.698438,
2007-05-03, 03:19:00,VALID,915.217,VALID,0,VALID,99.2894,VALID,-0.0339617,VALID,19.8194,VALID,228,VALID,0.186047,
2007-05-03, 03:20:00,VALID,915.222,VALID,0,VALID,99.4764,VALID,-0.101885,VALID,19.862,VALID,351,VALID,0.671354,
2007-05-03, 03:21:00,VALID,915.235,VALID,0,VALID,99.5819,VALID,-0.101885,VALID,19.8648,VALID,25,VALID,0.728379,
2007-05-03, 03:22:00,VALID,915.21,VALID,0,VALID,99.6442,VALID,-0.0509425,VALID,19.8618,VALID,36,VALID,1.57613,
2007-05-03, 03:23:00,VALID,915.149,VALID,0,VALID,99.7243,VALID,-0.101885,VALID,19.8358,VALID,35,VALID,2.22414,
2007-05-03, 03:24:00,VALID,915.18,VALID,0,VALID,99.8146,VALID,-0.101885,VALID,19.7936,VALID,8,VALID,1.36161,
2007-05-03, 03:25:00,VALID,915.181,VALID,0,VALID,99.737,VALID,-0.101885,VALID,19.755,VALID,20,VALID,0.817587,
2007-05-03, 03:26:00,VALID,915.141,VALID,0,VALID,99.7904,VALID,-0.0849042,VALID,19.7482,VALID,43,VALID,1.31516,
2007-05-03, 03:27:00,VALID,915.186,VALID,0,VALID,99.8095,VALID,-0.0679233,VALID,19.7674,VALID,26,VALID,0.188262,
2007-05-03, 03:28:00,VALID,915.195,VALID,0,VALID,99.7434,VALID,-0.0849042,VALID,19.7907,VALID,26,VALID,0,
2007-05-03, 03:29:00,VALID,915.235,VALID,0,VALID,99.6836,VALID,-0.0679233,VALID,19.8034,VALID,26,VALID,0.00078125,
2007-05-03, 03:30:00,VALID,915.24,VALID,0,VALID,99.6824,VALID,-0.101885,VALID,19.8066,VALID,25,VALID,0.476935,
2007-05-03, 03:31:00,VALID,915.23,VALID,0,VALID,99.8464,VALID,-0.0849042,VALID,19.8199,VALID,27,VALID,0.995164,
2007-05-03, 03:32:00,VALID,915.228,VALID,0,VALID,99.9682,VALID,-0.0849042,VALID,19.7931,VALID,42,VALID,0.882465,
2007-05-03, 03:33:00,VALID,915.222,VALID,0,VALID,100,VALID,-0.0679233,VALID,19.7774,VALID,33,VALID,1.25,
2007-05-03, 03:34:00,VALID,915.228,VALID,0,VALID,100,VALID,-0.0849042,VALID,19.7587,VALID,19,VALID,0.676525,
2007-05-03, 03:35:00,VALID,915.245,VALID,0,VALID,100,VALID,-0.0849042,VALID,19.7288,VALID,24,VALID,0.261632,